This is the latest recevied weather packets stored in our database for station/object N2PUI. If no packets are shown the sender has not sent any weather packets the latest 10 day(s).
| Time | Temp. | Humidity | Pressure | Rain* | Wind** | Luminosity | Snow |
|---|---|---|---|---|---|---|---|
| 1777835151 | 11.67° C | 38% | 1011.4 hPa | 0 mm | - | 391 W/m² | - |
| 1777834848 | 11.67° C | 39% | 1011.6 hPa | 0 mm | - | 310 W/m² | - |
| 1777834539 | 11.67° C | 39% | 1011.8 hPa | 0 mm | - | 232 W/m² | - |
| 1777834239 | 11.67° C | 39% | 1011.5 hPa | 0 mm | - | 289 W/m² | - |
| 1777833935 | 11.67° C | 39% | 1011.3 hPa | 0 mm | - | 321 W/m² | - |
| 1777833632 | 12.22° C | 38% | 1011.5 hPa | 0 mm | - | 295 W/m² | - |
| 1777833328 | 11.67° C | 38% | 1011.7 hPa | 0 mm | - | 875 W/m² | - |
| 1777833026 | 12.22° C | 37% | 1011.8 hPa | 0 mm | - | 839 W/m² | - |
| 1777832724 | 11.67° C | 39% | 1011.8 hPa | 0 mm | - | 844 W/m² | - |
| 1777832422 | 11.11° C | 38% | 1012 hPa | 0 mm | - | 834 W/m² | - |
| 1777832118 | 11.11° C | 38% | 1011.8 hPa | 0 mm | - | 309 W/m² | - |
| 1777831815 | 12.22° C | 40% | 1012.1 hPa | 0 mm | - | 326 W/m² | - |
| 1777831512 | 11.67° C | 40% | 1012.1 hPa | 0 mm | - | 900 W/m² | - |
| 1777831209 | 11.67° C | 39% | 1011.9 hPa | 0 mm | - | 179 W/m² | - |
| 1777830907 | 11.67° C | 40% | 1012.2 hPa | 0 mm | - | 707 W/m² | - |
| 1777830603 | 11.67° C | 40% | 1012.1 hPa | 0 mm | - | 780 W/m² | - |
| 1777830301 | 11.11° C | 39% | 1012.4 hPa | 0 mm | - | 781 W/m² | - |
| 1777829996 | 11.67° C | 39% | 1012.6 hPa | 0 mm | - | 789 W/m² | - |
| 1777829692 | 11.11° C | 38% | 1012.4 hPa | 0 mm | - | 880 W/m² | - |
| 1777829389 | 10.56° C | 39% | 1012.7 hPa | 0 mm | - | 867 W/m² | - |
| 1777829086 | 10.56° C | 40% | 1012.8 hPa | 0 mm | - | 239 W/m² | - |
| 1777828783 | 10° C | 40% | 1012.6 hPa | 0 mm | - | 821 W/m² | - |
| 1777828479 | 10° C | 41% | 1012.4 hPa | 0 mm | - | 741 W/m² | - |
| 1777828177 | 10° C | 40% | 1012.7 hPa | 0 mm | - | 837 W/m² | - |
| 1777827873 | 10° C | 40% | 1012.9 hPa | 0 mm | - | 246 W/m² | - |
* Rain latest hour (hover to see other rain measurements)
** Current wind speed in m/s (hover to see current wind gust speed)